Elizabeth City, NC

5:09 PM EST on November 11, 2019 (GMT -0500)
Elizabeth City Cgas-Regional

Weather History for KECG - October, 2019

Change the Weather History Date:

Sunday, October 20, 2019

  Actual Average Record
Temperature  
Mean Temperature 69 °F 61 °F  
Max Temperature 77 °F 71 °F 87 °F (1984)
Min Temperature 60 °F 51 °F 30 °F (1981)
Degree Days  
Heating Degree Days 0 5  
Month to date heating degree days 36 64  
Since 1 July heating degree days 36 76  
Cooling Degree Days 4 1  
Month to date cooling degree days 95 46  
Year to date cooling degree days 2214 1568  
Growing Degree Days 19 (Base 50)    
Moisture  
Dew Point 65 °F    
Average Humidity 83    
Maximum Humidity 93    
Minimum Humidity 73    
Precipitation  
Precipitation 1.15 in 0.08 in 2.21 in (1944)
Month to date precipitation 2.43 2.01  
Year to date precipitation 49.83 39.90  
Snow  
Snow 0.00 in - 0.00 in (2002)
Month to date snowfall 0.0  
Since 1 July snowfall 0.0  
Snow Depth 0.00 in    
Sea Level Pressure  
Sea Level Pressure 29.75 in    
Wind  
Wind Speed 14 mph (SSE)    
Max Wind Speed 25 mph    
Max Gust Speed 35 mph    
Visibility 8 miles    
Events Rain    
T = Trace of Precipitation, MM = Missing Value Source: NWS Daily Summary

Daily Weather History Graph

Daily Weather History Graph

Search for Another Location

Airport or City:

Astronomy

Oct. 20, 2019 Rise Set
Actual Time 7:15 AM EDT 6:22 PM EDT
Civil Twilight 6:49 AM EDT 6:48 PM EDT
Nautical Twilight 6:19 AM EDT 7:18 PM EDT
Astronomical Twilight 5:50 AM EDT 7:48 PM EDT
Moon 11:35 PM EDT (10/20) 1:34 PM EDT (10/20)
Length of Visible Light 11h 58m
Length of Day
11h 06m
Waning Gibbous, 59% of the Moon is Illuminated
Oct 20
Waning Gibbous
Oct 21
Last Quarter
Oct 27
New
Nov 4
First Quarter
Nov 12
Full

Hourly Weather History & Observations

Time (EDT) Temp. Dew Point Humidity Pressure Visibility Wind Dir Wind Speed Gust Speed Precip Events Conditions
12:54 AM 64.9 °F 57.0 °F 75% 29.98 in 10.0 mi East 4.6 mph - N/A   Overcast
1:54 AM 66.0 °F 57.9 °F 75% 29.95 in 10.0 mi East 4.6 mph - N/A   Overcast
2:54 AM 66.9 °F 59.0 °F 76% 29.92 in 10.0 mi East 4.6 mph - N/A   Overcast
3:35 AM 66.9 °F 60.1 °F 79% 29.91 in 7.0 mi SE 5.8 mph - 0.03 in Rain Rain
3:54 AM 66.0 °F 61.0 °F 84% 29.89 in 10.0 mi ESE 8.1 mph - 0.05 in Rain Light Rain
4:54 AM 64.9 °F 62.1 °F 90% 29.87 in 8.0 mi ESE 8.1 mph - 0.06 in Rain Rain
5:54 AM 66.9 °F 63.0 °F 87% 29.86 in 10.0 mi ESE 13.8 mph - 0.05 in Rain Light Rain
6:09 AM 66.9 °F 64.0 °F 90% 29.85 in 7.0 mi ESE 13.8 mph - 0.02 in Rain Light Rain
6:15 AM 66.9 °F 64.0 °F 90% 29.85 in 8.0 mi ESE 15.0 mph - 0.03 in Rain Light Rain
6:54 AM 66.9 °F 64.9 °F 93% 29.83 in 7.0 mi ESE 18.4 mph 24.2 mph 0.08 in Rain Rain
7:54 AM 68.0 °F 66.0 °F 93% 29.81 in 3.0 mi ESE 17.3 mph 25.3 mph 0.15 in Rain Heavy Rain
8:02 AM 68.0 °F 66.0 °F 93% 29.80 in 2.5 mi ESE 18.4 mph 25.3 mph 0.08 in Rain Heavy Rain
8:45 AM 69.1 °F 66.0 °F 90% 29.79 in 4.0 mi SE 19.6 mph 28.8 mph 0.28 in Rain Rain
8:54 AM 69.1 °F 66.0 °F 90% 29.78 in 3.0 mi SE 21.9 mph 32.2 mph 0.31 in Rain Heavy Rain
9:04 AM 69.1 °F 66.0 °F 90% 29.78 in 1.8 mi ESE 23.0 mph 33.4 mph 0.07 in Rain Heavy Rain
9:54 AM 70.0 °F 66.9 °F 90% 29.75 in 4.0 mi SE 18.4 mph 29.9 mph 0.26 in Rain Rain
10:54 AM 70.0 °F 66.9 °F 90% 29.73 in 6.0 mi SSE 19.6 mph 29.9 mph 0.13 in Rain Light Rain
11:54 AM 71.1 °F 66.9 °F 87% 29.70 in 5.0 mi SE 17.3 mph 27.6 mph 0.03 in Rain Light Rain
12:17 PM 71.1 °F 68.0 °F 90% 29.69 in 7.0 mi South 16.1 mph 25.3 mph 0.01 in Rain Light Rain
12:27 PM 71.1 °F 66.9 °F 87% 29.69 in 9.0 mi SSW 12.7 mph 23.0 mph 0.01 in Rain Light Rain
12:54 PM 73.0 °F 69.1 °F 87% 29.66 in 10.0 mi SSE 16.1 mph 33.4 mph 0.01 in Rain Light Rain
1:20 PM 73.9 °F 69.1 °F 85% 29.65 in 10.0 mi SSE 15.0 mph 27.6 mph 0.00 in Rain Light Rain
1:38 PM 75.0 °F 70.0 °F 84% 29.64 in 10.0 mi SSE 12.7 mph 26.5 mph 0.00 in Rain Light Rain
1:54 PM 75.0 °F 70.0 °F 84% 29.63 in 10.0 mi SSE 18.4 mph 29.9 mph 0.00 in Rain Light Rain
2:15 PM 77.0 °F 71.1 °F 82% 29.62 in 10.0 mi SSE 15.0 mph 24.2 mph 0.00 in Rain Light Rain
2:23 PM 75.9 °F 71.1 °F 85% 29.62 in 10.0 mi SSE 13.8 mph 25.3 mph 0.00 in Rain Light Rain
2:35 PM 75.9 °F 71.1 °F 85% 29.62 in 10.0 mi SSE 12.7 mph 21.9 mph 0.00 in   Overcast
2:54 PM 77.0 °F 71.1 °F 82% 29.62 in 9.0 mi South 6.9 mph - 0.00 in   Overcast
3:01 PM 77.0 °F 71.1 °F 82% 29.62 in 10.0 mi South 10.4 mph - N/A   Overcast
3:54 PM 77.0 °F 72.0 °F 84% 29.61 in 10.0 mi South 10.4 mph - N/A   Overcast
4:41 PM 73.9 °F 70.0 °F 87% 29.63 in 6.0 mi WSW 12.7 mph - 0.01 in Rain Light Rain
4:54 PM 73.9 °F 70.0 °F 87% 29.64 in 10.0 mi West 10.4 mph - 0.01 in   Overcast
5:35 PM 73.0 °F 66.9 °F 81% 29.65 in 10.0 mi WSW 12.7 mph - N/A   Overcast
5:54 PM 72.0 °F 66.9 °F 84% 29.66 in 10.0 mi West 12.7 mph - N/A   Overcast
6:00 PM 72.0 °F 66.9 °F 84% 29.66 in 10.0 mi West 16.1 mph 23.0 mph N/A   Overcast
6:54 PM 68.0 °F 64.9 °F 90% 29.69 in 7.0 mi WNW 12.7 mph 21.9 mph 0.00 in Rain Light Rain
7:54 PM 66.0 °F 63.0 °F 90% 29.73 in 4.0 mi WNW 13.8 mph - 0.00 in Rain Light Rain
8:54 PM 64.0 °F 61.0 °F 90% 29.76 in 6.0 mi NW 16.1 mph 26.5 mph 0.01 in Rain Light Rain
9:09 PM 64.0 °F 60.1 °F 87% 29.77 in 10.0 mi NW 18.4 mph - 0.00 in   Overcast
9:23 PM 63.0 °F 60.1 °F 90% 29.78 in 9.0 mi NW 19.6 mph 26.5 mph 0.00 in Rain Light Rain
9:39 PM 63.0 °F 59.0 °F 87% 29.79 in 9.0 mi NW 17.3 mph - 0.00 in Rain Light Rain
9:54 PM 62.1 °F 59.0 °F 90% 29.80 in 8.0 mi NW 15.0 mph 25.3 mph 0.00 in Rain Light Rain
10:24 PM 62.1 °F 59.0 °F 90% 29.81 in 10.0 mi NW 17.3 mph 25.3 mph 0.00 in   Overcast
10:44 PM 61.0 °F 57.9 °F 90% 29.82 in 7.0 mi NW 16.1 mph - 0.00 in   Overcast
10:54 PM 61.0 °F 57.9 °F 90% 29.82 in 6.0 mi NW 15.0 mph - 0.00 in   Overcast
11:54 PM 61.0 °F 57.9 °F 90% 29.84 in 4.0 mi NW 16.1 mph - 0.00 in Rain Light Rain